Home > Weather > Ganja > Past weeks

Flag for Azerbaijan Weather for the Past 2 Weeks in Ganja, Azerbaijan

Now
57 °F

Cool.


Feels Like: 57 °F
Forecast: 54 / 67 °F
Wind: 5 mph from Northwest

Location: Gyanca Airport

Current Time: Apr 30, 2016 at 5:40:26 AM

Latest Report: Apr 30, 2016 at 4:00 AM


Visibility: N/A

Pressure: 30.01 "Hg

Humidity: 67%

Dew Point: 46 °F

Location of GanjaLocation

Historic Weather in Ganja — Graph

°F

Ganja Temperature Yesterday

Maximum temperature yesterday: 64 °F (at 4:00 PM)
Minimum temperature yesterday: 55 °F (at 11:00 AM)
Average temperature yesterday: 60 °F

High & Low Weather Summary for the Past Weeks

 TemperatureHumidityPressure
High86 °F (Apr 26, 4:00 PM)100% (Apr 16, 12:30 AM)30.30 "Hg (Apr 16, 12:30 AM)
Low45 °F (Apr 23, 12:30 AM)16% (Apr 17, 5:30 PM)29.65 "Hg (Apr 25, 3:30 PM)
Average63 °F58%29.95 "Hg
* Reported Apr 15 4:00 AM — Apr 30 4:00 AM, Ganja, Weather by CustomWeather, © 2016

Note: Actual official high and low records may vary slightly from our data, if they occured in-between our weather recording intervals... More about our weather records

Advertising

Ganja Weather History for the Previous 24 Hours

Scroll right to see more
 ConditionsComfort  
Time TempWeatherWind HumidityBarometerVisibility
4:00 AM
Sat, Apr 30
57 °FCool.5 mph67%30.01 "HgN/A
3:30 AM57 °FOvercast.5 mph72%30.01 "HgN/A
3:00 AM59 °FOvercast.3 mph72%30.01 "HgN/A
2:30 AM59 °FOvercast.5 mph68%30.01 "HgN/A
2:00 AM59 °FOvercast.5 mph68%30.01 "HgN/A
1:30 AM59 °FOvercast.3 mph72%30.01 "HgN/A
1:00 AM59 °FPartly cloudy.2 mph72%30.01 "HgN/A
12:30 AM59 °FPartly cloudy.5 mph72%30.04 "HgN/A
12:00 AM59 °FPartly cloudy.5 mph72%30.04 "HgN/A
11:30 PM
Fri, Apr 29
59 °FPartly cloudy.7 mph72%30.04 "HgN/A
11:00 PM59 °FPartly cloudy.8 mph77%30.04 "HgN/A
10:30 PM61 °FPartly cloudy.9 mph77%30.04 "HgN/A
9:30 PM63 °FPartly cloudy.No wind83%30.04 "HgN/A
9:00 PM63 °FPartly cloudy.No wind83%30.04 "HgN/A
7:30 PM63 °FBroken clouds.No wind77%30.01 "HgN/A
7:00 PM64 °FBroken clouds.No wind73%30.01 "HgN/A
6:30 PM64 °FBroken clouds.3 mph73%30.01 "HgN/A
6:00 PM64 °FBroken clouds.7 mph73%30.01 "HgN/A
5:30 PM64 °FPartly sunny.5 mph73%29.98 "HgN/A
5:00 PM64 °FPartly sunny.No wind78%29.98 "HgN/A
4:30 PM64 °FPartly sunny.7 mph73%29.98 "HgN/A
4:00 PM64 °FPartly sunny.6 mph73%29.98 "HgN/A
3:30 PM63 °FPartly sunny.7 mph83%29.98 "HgN/A
3:00 PM63 °FPartly sunny.1 mph83%29.98 "HgN/A
2:30 PM61 °FThundershowers. Broken clouds.2 mph83%29.98 "HgN/A
2:00 PM61 °FThundershowers. Broken clouds.7 mph88%30.01 "HgN/A
1:30 PM59 °FPartly sunny.No wind88%30.01 "HgN/A
1:00 PM59 °FOvercast.2 mph88%30.01 "HgN/A
12:30 PM59 °FOvercast.7 mph88%30.01 "HgN/A
12:00 PM57 °FOvercast.8 mph94%30.01 "HgN/A
11:30 AM57 °FOvercast.12 mph88%30.04 "HgN/A
11:00 AM55 °FLow clouds.13 mph94%30.04 "Hg4 mi
10:30 AM57 °FLow clouds.13 mph94%30.04 "Hg4 mi
10:00 AM57 °FOvercast.6 mph94%30.04 "HgN/A
9:00 AM57 °FOvercast.2 mph94%30.01 "Hg4 mi
8:30 AM57 °FFog.7 mph100%30.01 "Hg2 mi
7:30 AM59 °FPartly sunny.9 mph88%29.98 "HgN/A
6:30 AM59 °FOvercast.2 mph94%29.98 "HgN/A
6:00 AM59 °FOvercast.3 mph94%29.95 "HgN/A
5:30 AM57 °FOvercast.6 mph100%29.95 "HgN/A
5:00 AM57 °FLight rain. Overcast.7 mph100%29.98 "HgN/A
Weather by CustomWeather, © 2016

See weather overviewHow to use our weather pages